M I D A S
Marine Information and Data Acquisition System
Tripno 1898 of the Zeeleeuw from 2010-06-10 07:17:39 to 2010-06-10 16:38:57
Back to CruiseResearch ActivitiesStationsMapUnderway DataData graphs

EquipmentUnitsComments
TimeDGPSUTC
LatitudeDGPSDM.mWGS84
LongitudeDGPSDM.mWGS84
SpeedMeteo Stationm/sRelative wind speed
DirectionMeteo StationdegRelative wind direction
TemperatureMeteo Stationdeg CelciusAir temperature
PressureMeteo StationPaAtmospheric pressure
HumidityMeteo Station%Relative humidity
Missing or incorrect values are displayed as -999
Metereological data collected by the RV Zeeleeuw from 2010-06-10 07:52:38 to 2010-06-10 16:42:46
Time Latitude Longitude Speed Direction Temperature Pressure Humidity
2010-06-10 07:53 51°13.675 2°55.871 2.4 31 16 100460 46
2010-06-10 07:54 51°13.71 2°55.764 6 261 16 100460 48
2010-06-10 07:55 51°13.78 2°55.671 6.4 24 15.9 100460 45
2010-06-10 07:56 51°13.852 2°55.611 6.6 27 15.9 100470 46
2010-06-10 07:57 51°13.911 2°55.602 5.3 25 15.9 100460 45
2010-06-10 07:58 51°13.946 2°55.626 4.2 23 16 100450 46
2010-06-10 07:59 51°13.953 2°55.625 6.1 30 16 100450 44
2010-06-10 08:00 51°13.978 2°55.558 5.7 355 15.9 100430 45
2010-06-10 08:01 51°14.089 2°55.462 7.7 351 15.9 100420 47
2010-06-10 08:02 51°14.234 2°55.349 9.5 352 15.8 100420 47
2010-06-10 08:03 51°14.394 2°55.205 10.7 355 15.6 100400 46
2010-06-10 08:04 51°14.564 2°55.012 11 354 15.5 100390 47
2010-06-10 08:05 51°14.743 2°54.818 11.1 353 15.5 100400 46
2010-06-10 08:06 51°14.917 2°54.616 12 356 15.4 100400 45
2010-06-10 08:07 51°15.081 2°54.406 11.4 356 15.3 100390 45
2010-06-10 08:08 51°15.25 2°54.184 10.2 355 15.4 100390 45
2010-06-10 08:09 51°15.413 2°53.972 10.2 354 15.3 100400 45
2010-06-10 08:10 51°15.578 2°53.755 10 352 15.3 100400 46
2010-06-10 08:11 51°15.762 2°53.586 10.5 350 15.3 100400 45
2010-06-10 08:12 51°15.957 2°53.456 11 350 15.2 100400 46
2010-06-10 08:13 51°16.15 2°53.323 14 350 15.2 100410 46
2010-06-10 08:14 51°16.343 2°53.191 12.6 350 15.2 100400 45
2010-06-10 08:15 51°16.536 2°53.058 13.6 350 15.1 100410 45
2010-06-10 08:16 51°16.731 2°52.923 13.1 349 15.1 100400 46
2010-06-10 08:17 51°16.921 2°52.791 14.3 350 15.1 100410 46
2010-06-10 08:18 51°17.112 2°52.66 13.6 348 15.1 100410 46
2010-06-10 08:19 51°17.311 2°52.643 11.7 336 15.1 100420 46
2010-06-10 08:20 51°17.482 2°52.828 13.9 332 15.1 100430 45
2010-06-10 08:21 51°17.634 2°53.059 13.2 325 15.1 100440 45
2010-06-10 08:22 51°17.735 2°53.357 12.1 324 15.1 100430 45
2010-06-10 08:23 51°17.832 2°53.659 13.6 324 15.1 100430 44
2010-06-10 08:24 51°17.933 2°53.963 12.7 325 15.1 100420 45
2010-06-10 08:25 51°18.033 2°54.254 13.8 325 15.1 100440 45
2010-06-10 08:26 51°18.137 2°54.556 14.5 325 15.1 100440 45
2010-06-10 08:27 51°18.238 2°54.846 14.6 325 15.1 100430 46
2010-06-10 08:28 51°18.351 2°55.137 13.4 327 15.1 100440 45
2010-06-10 08:29 51°18.471 2°55.409 13.8 328 15.1 100440 46
2010-06-10 08:30 51°18.593 2°55.686 12.8 326 15.1 100440 45
2010-06-10 08:31 51°18.714 2°55.965 14.3 326 15.1 100430 45
2010-06-10 08:32 51°18.834 2°56.243 14.3 327 15.1 100430 46
2010-06-10 08:33 51°18.957 2°56.525 15.4 324 15.1 100430 45
2010-06-10 08:34 51°19.076 2°56.799 15.6 325 15.1 100440 45
2010-06-10 08:35 51°19.2 2°57.081 14 326 15.1 100440 46
2010-06-10 08:36 51°19.318 2°57.355 14.3 328 15.1 100440 46
2010-06-10 08:37 51°19.441 2°57.633 16.8 327 15.1 100440 46
2010-06-10 08:38 51°19.559 2°57.92 12.9 326 15.1 100460 45
2010-06-10 08:39 51°19.667 2°58.227 14.4 325 15.1 100450 44
2010-06-10 08:40 51°19.772 2°58.524 12.7 328 15.1 100460 45
2010-06-10 08:41 51°19.882 2°58.83 11.7 327 15.1 100460 45
2010-06-10 08:42 51°19.988 2°59.128 12.9 325 15.1 100460 46
2010-06-10 08:43 51°20.068 2°59.458 13.4 322 15.1 100460 46
2010-06-10 08:44 51°20.139 2°59.791 13.2 324 15.1 100450 46
2010-06-10 08:45 51°20.21 3°0.117 12.4 320 15.1 100450 46
2010-06-10 08:46 51°20.282 3°0.448 12.2 322 15.1 100460 46
2010-06-10 08:47 51°20.356 3°0.781 14 321 15.1 100450 44
2010-06-10 08:48 51°20.432 3°1.114 11.6 321 15.1 100450 46
2010-06-10 08:49 51°20.509 3°1.453 11.2 322 15.1 100450 45
2010-06-10 08:50 51°20.586 3°1.786 12.6 321 15.1 100460 45
2010-06-10 08:51 51°20.663 3°2.115 11.7 322 15.1 100460 45
2010-06-10 08:52 51°20.741 3°2.45 13.6 321 15.1 100460 45
2010-06-10 08:53 51°20.819 3°2.792 12.7 323 15.1 100450 45
2010-06-10 08:54 51°20.899 3°3.128 12.6 323 15.2 100460 45
2010-06-10 08:55 51°20.977 3°3.465 12.7 321 15.2 100460 45
2010-06-10 08:56 51°21.057 3°3.802 12.5 322 15.2 100470 45
2010-06-10 08:57 51°21.138 3°4.139 12.4 321 15.2 100460 45
2010-06-10 08:58 51°21.219 3°4.477 12.2 321 15.2 100450 45
2010-06-10 08:59 51°21.299 3°4.817 11.3 322 15.2 100460 46
2010-06-10 09:00 51°21.378 3°5.151 11.8 321 15.2 100460 46
2010-06-10 09:01 51°21.459 3°5.493 12.4 320 15.2 100460 45
2010-06-10 09:02 51°21.541 3°5.842 13 319 15.2 100450 45
2010-06-10 09:03 51°21.621 3°6.183 12.2 320 15.2 100460 44
2010-06-10 09:04 51°21.705 3°6.534 12.2 321 15.2 100460 46
2010-06-10 09:05 51°21.778 3°6.885 12.6 321 15.2 100470 46
2010-06-10 09:06 51°21.844 3°7.241 11.4 320 15.2 100460 45
2010-06-10 09:07 51°21.899 3°7.596 12.1 318 15.2 100460 45
2010-06-10 09:08 51°21.955 3°7.96 12.6 321 15.3 100460 46
2010-06-10 09:09 51°21.999 3°8.33 11.9 316 15.3 100440 46
2010-06-10 09:10 51°22.037 3°8.709 13.2 318 15.3 100450 45
2010-06-10 09:11 51°22.076 3°9.084 13.5 317 15.3 100440 44
2010-06-10 09:12 51°22.114 3°9.459 12.8 317 15.3 100440 45
2010-06-10 09:13 51°22.154 3°9.836 15.4 317 15.3 100440 46
2010-06-10 09:14 51°22.198 3°10.214 13.4 317 15.3 100430 45
2010-06-10 09:15 51°22.269 3°10.58 14.6 321 15.3 100430 46
2010-06-10 09:16 51°22.349 3°10.914 11.6 319 15.3 100430 46
2010-06-10 09:17 51°22.428 3°11.186 13.2 321 15.3 100450 45
2010-06-10 09:18 51°22.492 3°11.387 11.8 321 15.3 100450 46
2010-06-10 09:19 51°22.507 3°11.462 6.6 325 15.3 100460 44
2010-06-10 09:20 51°22.494 3°11.493 6.7 316 15.3 100460 47
2010-06-10 09:21 51°22.481 3°11.511 6.5 242 15.3 100460 47
2010-06-10 09:22 51°22.474 3°11.532 7.9 253 15.3 100460 47
2010-06-10 09:23 51°22.47 3°11.559 6.9 260 15.4 100480 45
2010-06-10 09:24 51°22.464 3°11.591 5.4 264 15.4 100490 47
2010-06-10 09:25 51°22.457 3°11.625 5.4 262 15.4 100470 47
2010-06-10 09:26 51°22.449 3°11.66 5.8 264 15.3 100480 47
2010-06-10 09:27 51°22.441 3°11.696 6.1 264 15.3 100480 43
2010-06-10 09:28 51°22.433 3°11.735 7.2 258 15.3 100480 45
2010-06-10 09:29 51°22.425 3°11.776 8 256 15.4 100480 45
2010-06-10 09:30 51°22.416 3°11.817 7.8 256 15.3 100480 46
2010-06-10 09:31 51°22.405 3°11.88 6.4 23 15.3 100480 46
2010-06-10 09:32 51°22.41 3°11.984 7.8 323 15.3 100470 47
2010-06-10 09:33 51°22.466 3°12.049 9.3 359 15.3 100470 45
2010-06-10 09:34 51°22.558 3°11.954 8.4 -999 15.2 100460 45
2010-06-10 09:35 51°22.694 3°11.801 10.8 358 15.2 100450 45
2010-06-10 09:36 51°22.821 3°11.658 9.9 360 15.1 100450 45
2010-06-10 09:37 51°22.897 3°11.557 7.5 16 15.1 100450 45
2010-06-10 09:38 51°22.928 3°11.446 6.5 18 15 100470 45
2010-06-10 09:39 51°22.979 3°11.252 9.4 9 15 100470 46
2010-06-10 09:40 51°23.044 3°11.04 6.6 9 15 100470 46
2010-06-10 09:41 51°23.119 3°10.838 6.7 8 14.9 100470 44
2010-06-10 09:42 51°23.205 3°10.634 8 7 14.9 100470 46
2010-06-10 09:43 51°23.287 3°10.436 8.7 9 14.9 100470 45
2010-06-10 09:44 51°23.359 3°10.337 7.9 1 14.8 100480 46
2010-06-10 09:45 51°23.427 3°10.32 7.7 359 14.8 100470 45
2010-06-10 09:46 51°23.492 3°10.332 8.3 354 14.8 100480 45
2010-06-10 09:47 51°23.553 3°10.373 8.3 344 14.7 100480 46
2010-06-10 09:48 51°23.614 3°10.459 8.8 333 14.7 100480 45
2010-06-10 09:49 51°23.655 3°10.563 8.2 330 14.8 100480 45
2010-06-10 09:50 51°23.684 3°10.665 8.9 327 14.8 100480 47
2010-06-10 09:51 51°23.709 3°10.764 9.3 326 14.8 100460 45
2010-06-10 09:52 51°23.732 3°10.865 8.5 326 14.8 100470 46
2010-06-10 09:53 51°23.757 3°10.968 7.3 327 14.8 100460 46
2010-06-10 09:54 51°23.787 3°11.074 7.8 327 14.8 100470 46
2010-06-10 09:55 51°23.817 3°11.182 8.1 328 14.8 100460 47
2010-06-10 09:56 51°23.849 3°11.291 9.1 327 14.8 100470 47
2010-06-10 09:57 51°23.879 3°11.4 8.8 326 14.8 100470 45
2010-06-10 09:58 51°23.909 3°11.512 7.2 327 14.8 100470 47
2010-06-10 09:59 51°23.934 3°11.629 7.7 320 14.9 100470 46
2010-06-10 10:00 51°23.954 3°11.752 9.5 317 14.9 100460 45
2010-06-10 10:01 51°23.966 3°11.877 8.9 36 14.9 100450 45
2010-06-10 10:02 51°23.973 3°12.003 7.5 36 14.8 100440 47
2010-06-10 10:03 51°23.981 3°12.129 8.5 35 14.8 100440 46
2010-06-10 10:04 51°23.989 3°12.254 8 231 14.8 100440 46
2010-06-10 10:05 51°23.997 3°12.38 8.2 32 14.9 100440 46
2010-06-10 10:06 51°24.009 3°12.505 8.2 36 14.8 100430 44
2010-06-10 10:07 51°24.02 3°12.63 7.7 33 14.8 100450 44
2010-06-10 10:08 51°24.031 3°12.755 8.1 34 14.9 100440 44
2010-06-10 10:09 51°24.041 3°12.877 8.7 39 14.9 100450 45
2010-06-10 10:10 51°24.051 3°12.995 9 38 14.8 100450 44
2010-06-10 10:11 51°24.059 3°13.111 8.6 33 14.8 100450 46
2010-06-10 10:12 51°24.065 3°13.222 8.8 33 14.8 100450 45
2010-06-10 10:13 51°24.071 3°13.33 7.7 39 14.8 100450 45
2010-06-10 10:14 51°24.076 3°13.437 7.3 32 14.9 100450 46
2010-06-10 10:15 51°24.083 3°13.542 7.8 32 14.8 100450 47
2010-06-10 10:16 51°24.089 3°13.648 8.2 32 14.8 100450 45
2010-06-10 10:17 51°24.094 3°13.752 8 33 14.8 100440 45
2010-06-10 10:18 51°24.101 3°13.854 8 36 14.8 100440 45
2010-06-10 10:19 51°24.102 3°13.957 8.7 245 14.9 100440 45
2010-06-10 10:20 51°24.094 3°14.058 7.4 248 14.9 100430 45
2010-06-10 10:21 51°24.079 3°14.157 9.5 255 14.9 100440 45
2010-06-10 10:22 51°24.06 3°14.248 7.3 262 14.8 100440 46
2010-06-10 10:23 51°24.037 3°14.332 4.8 267 14.9 100450 45
2010-06-10 10:24 51°24.01 3°14.41 5.9 264 14.8 100450 45
2010-06-10 10:25 51°23.969 3°14.491 6.5 34 14.8 100450 45
2010-06-10 10:26 51°23.908 3°14.532 3.2 31 14.8 100460 44
2010-06-10 10:27 51°23.873 3°14.55 6.7 32 14.9 100470 45
2010-06-10 10:28 51°23.853 3°14.57 7.1 38 14.9 100460 45
2010-06-10 10:29 51°23.841 3°14.593 5.9 38 14.8 100450 47
2010-06-10 10:30 51°23.855 3°14.573 6.9 1 14.9 100450 47
2010-06-10 10:31 51°23.929 3°14.595 8.4 343 14.9 100450 45
2010-06-10 10:32 51°24.03 3°14.669 10.8 333 14.8 100440 45
2010-06-10 10:33 51°24.134 3°14.781 10 330 14.8 100440 46
2010-06-10 10:34 51°24.246 3°14.934 11.7 329 14.9 100430 46
2010-06-10 10:35 51°24.38 3°15.119 12.1 330 14.9 100430 46
2010-06-10 10:36 51°24.579 3°15.295 13.5 339 14.8 100420 45
2010-06-10 10:37 51°24.796 3°15.277 15.6 344 14.8 100420 45
2010-06-10 10:38 51°24.968 3°15.133 10.1 2 14.8 100410 45
2010-06-10 10:39 51°25.031 3°14.84 7.5 3 14.7 100420 45
2010-06-10 10:40 51°25.065 3°14.533 8.4 5 14.7 100420 45
2010-06-10 10:41 51°25.101 3°14.219 9.4 1 14.6 100420 45
2010-06-10 10:42 51°25.164 3°13.907 8.4 359 14.6 100420 44
2010-06-10 10:43 51°25.231 3°13.599 8.4 -999 14.5 100420 44
2010-06-10 10:44 51°25.298 3°13.29 9.4 360 14.5 100420 44
2010-06-10 10:45 51°25.362 3°12.979 8.7 357 14.5 100420 46
2010-06-10 10:46 51°25.424 3°12.669 9.7 358 14.4 100420 46
2010-06-10 10:47 51°25.489 3°12.347 9.3 359 14.4 100420 44
2010-06-10 10:48 51°25.551 3°12.027 9.5 358 14.4 100420 46
2010-06-10 10:49 51°25.629 3°11.714 11.7 358 14.3 100420 46
2010-06-10 10:50 51°25.752 3°11.453 10.8 351 14.3 100420 45
2010-06-10 10:51 51°25.923 3°11.254 14.5 349 14.3 100420 46
2010-06-10 10:52 51°26.104 3°11.078 13.1 344 14.2 100420 45
2010-06-10 10:53 51°26.303 3°11.17 13.8 325 14.2 100420 45
2010-06-10 10:54 51°26.445 3°11.446 12.3 321 14.2 100420 45
2010-06-10 10:55 51°26.581 3°11.74 12.4 322 14.3 100410 44
2010-06-10 10:56 51°26.719 3°12.041 13.2 321 14.3 100410 45
2010-06-10 10:57 51°26.852 3°12.33 13.6 322 14.3 100410 45
2010-06-10 10:58 51°26.979 3°12.635 13.1 319 14.3 100420 46
2010-06-10 10:59 51°27.087 3°12.958 12.6 317 14.3 100410 46
2010-06-10 11:00 51°27.094 3°13.317 10.3 29 14.3 100410 45
2010-06-10 11:01 51°27.016 3°13.661 9.1 19 14.3 100420 44
2010-06-10 11:02 51°26.974 3°14.012 10.4 22 14.3 100420 45
2010-06-10 11:03 51°26.96 3°14.241 8.2 23 14.3 100430 43
2010-06-10 11:04 51°26.945 3°14.317 5.8 267 14.3 100460 44
2010-06-10 11:05 51°26.941 3°14.33 6.2 269 14.3 100460 45
2010-06-10 11:06 51°26.936 3°14.34 6.3 270 14.3 100460 46
2010-06-10 11:07 51°26.931 3°14.352 3.6 265 14.3 100460 44
2010-06-10 11:08 51°26.925 3°14.366 4.8 263 14.3 100460 46
2010-06-10 11:09 51°26.92 3°14.381 7.3 257 14.3 100460 46
2010-06-10 11:10 51°26.915 3°14.397 8.6 255 14.3 100460 45
2010-06-10 11:11 51°26.909 3°14.424 7.2 249 14.3 100460 44
2010-06-10 11:12 51°26.931 3°14.508 7.6 327 14.3 100430 46
2010-06-10 11:13 51°27.002 3°14.485 6.5 7 14.3 100420 46
2010-06-10 11:14 51°27.032 3°14.374 7.2 14 14.3 100450 46
2010-06-10 11:15 51°27.056 3°14.295 6.8 12 14.3 100450 46
2010-06-10 11:16 51°27.086 3°14.226 6.9 4 14.3 100440 46
2010-06-10 11:17 51°27.118 3°14.168 7.1 3 14.3 100450 46
2010-06-10 11:18 51°27.153 3°14.106 7.2 2 14.3 100440 45
2010-06-10 11:19 51°27.189 3°14.041 6.7 4 14.3 100440 43
2010-06-10 11:20 51°27.227 3°13.973 8.7 2 14.3 100420 44
2010-06-10 11:21 51°27.268 3°13.898 7 4 14.3 100430 46
2010-06-10 11:22 51°27.309 3°13.823 7.5 7 14.3 100430 44
2010-06-10 11:23 51°27.348 3°13.754 7 5 14.3 100420 46
2010-06-10 11:24 51°27.386 3°13.685 7 6 14.3 100430 45
2010-06-10 11:25 51°27.419 3°13.61 7.6 8 14.3 100430 46
2010-06-10 11:26 51°27.451 3°13.533 7.4 8 14.3 100440 45
2010-06-10 11:27 51°27.484 3°13.457 6.2 8 14.3 100430 45
2010-06-10 11:28 51°27.517 3°13.381 6.3 8 14.3 100430 45
2010-06-10 11:29 51°27.55 3°13.306 6.8 6 14.2 100430 45
2010-06-10 11:30 51°27.583 3°13.231 6.3 8 14.2 100430 46
2010-06-10 11:31 51°27.615 3°13.157 7.4 7 14.2 100430 45
2010-06-10 11:32 51°27.647 3°13.082 6.7 10 14.2 100430 45
2010-06-10 11:33 51°27.68 3°13.009 6.5 7 14.2 100430 44
2010-06-10 11:34 51°27.713 3°12.936 6.4 5 14.2 100440 46
2010-06-10 11:35 51°27.747 3°12.863 8.3 8 14.2 100430 45
2010-06-10 11:36 51°27.781 3°12.789 6.9 9 14.2 100430 45
2010-06-10 11:37 51°27.811 3°12.712 6.9 15 14.2 100430 46
2010-06-10 11:38 51°27.833 3°12.627 6.1 14 14.2 100430 46
2010-06-10 11:39 51°27.853 3°12.539 6.7 16 14.2 100430 45
2010-06-10 11:40 51°27.873 3°12.451 6.1 22 14.2 100430 45
2010-06-10 11:41 51°27.887 3°12.359 5.8 22 14.2 100440 45
2010-06-10 11:42 51°27.899 3°12.27 6.2 21 14.2 100440 44
2010-06-10 11:43 51°27.911 3°12.179 6.3 18 14.2 100440 45
2010-06-10 11:44 51°27.927 3°12.089 6.7 15 14.2 100440 46
2010-06-10 11:45 51°27.957 3°12.007 7.5 10 14.2 100430 46
2010-06-10 11:46 51°27.992 3°11.932 6.5 10 14.2 100430 46
2010-06-10 11:47 51°28.028 3°11.859 7.3 8 14.2 100430 47
2010-06-10 11:48 51°28.062 3°11.782 7.1 12 14.2 100430 45
2010-06-10 11:49 51°28.096 3°11.705 7.7 10 14.2 100440 47
2010-06-10 11:50 51°28.131 3°11.629 7.3 11 14.2 100440 46
2010-06-10 11:51 51°28.167 3°11.552 7 10 14.1 100430 44
2010-06-10 11:52 51°28.215 3°11.476 9.2 358 14.1 100450 46
2010-06-10 11:53 51°28.276 3°11.43 7.7 353 14.1 100440 45
2010-06-10 11:54 51°28.342 3°11.4 8.1 345 14.1 100430 45
2010-06-10 11:55 51°28.411 3°11.407 8.3 332 14.1 100440 46
2010-06-10 11:56 51°28.481 3°11.448 7.9 330 14.1 100440 45
2010-06-10 11:57 51°28.546 3°11.502 8 323 14.2 100430 45
2010-06-10 11:58 51°28.575 3°11.552 7.3 22 14.2 100420 45
2010-06-10 11:59 51°28.59 3°11.589 6.6 23 14.1 100430 44
2010-06-10 12:00 51°28.6 3°11.615 7.5 22 14.2 100440 46
2010-06-10 12:01 51°28.605 3°11.633 7.2 20 14.2 100450 45
2010-06-10 12:02 51°28.607 3°11.651 7.2 245 14.2 100450 45
2010-06-10 12:03 51°28.623 3°11.709 7.9 321 14.2 100450 46
2010-06-10 12:04 51°28.681 3°11.736 8 354 14.2 100450 45
2010-06-10 12:05 51°28.755 3°11.631 8.5 352 14.2 100450 45
2010-06-10 12:06 51°28.885 3°11.448 9.7 353 14.1 100430 45
2010-06-10 12:07 51°29.027 3°11.202 10.2 355 14.1 100430 44
2010-06-10 12:08 51°29.172 3°10.945 9.3 354 14.1 100440 45
2010-06-10 12:09 51°29.315 3°10.689 11.3 355 14 100430 45
2010-06-10 12:10 51°29.462 3°10.429 10.3 353 14 100440 46
2010-06-10 12:11 51°29.608 3°10.17 10.8 355 13.9 100430 46
2010-06-10 12:12 51°29.756 3°9.907 11.6 356 13.9 100430 46
2010-06-10 12:13 51°29.899 3°9.652 10 353 13.9 100440 45
2010-06-10 12:14 51°30.045 3°9.393 10.7 355 13.8 100440 46
2010-06-10 12:15 51°30.191 3°9.133 10.6 352 13.8 100450 44
2010-06-10 12:16 51°30.337 3°8.876 9.9 354 13.8 100440 44
2010-06-10 12:17 51°30.485 3°8.621 10.8 354 13.7 100440 45
2010-06-10 12:18 51°30.631 3°8.366 10.1 353 13.7 100450 44
2010-06-10 12:19 51°30.776 3°8.108 10.5 354 13.7 100450 45
2010-06-10 12:20 51°30.921 3°7.852 10.9 355 13.7 100460 45
2010-06-10 12:21 51°31.067 3°7.598 10.2 353 13.6 100460 46
2010-06-10 12:22 51°31.213 3°7.34 11.8 353 13.6 100440 45
2010-06-10 12:23 51°31.36 3°7.083 10 355 13.6 100450 44
2010-06-10 12:24 51°31.508 3°6.819 9.5 354 13.6 100440 45
2010-06-10 12:25 51°31.65 3°6.564 10.6 355 13.5 100450 45
2010-06-10 12:26 51°31.796 3°6.309 10.3 356 13.5 100460 45
2010-06-10 12:27 51°31.943 3°6.054 11.1 355 13.5 100450 45
2010-06-10 12:28 51°32.092 3°5.795 11 355 13.4 100460 45
2010-06-10 12:29 51°32.235 3°5.547 10.5 354 13.4 100450 45
2010-06-10 12:30 51°32.379 3°5.292 10.3 352 13.4 100470 44
2010-06-10 12:31 51°32.53 3°5.045 10.7 349 13.4 100450 45
2010-06-10 12:32 51°32.731 3°4.899 14 348 13.4 100470 46
2010-06-10 12:33 51°32.855 3°4.636 10.1 -999 13.3 100460 46
2010-06-10 12:34 51°32.934 3°4.324 9.2 358 13.3 100460 46
2010-06-10 12:35 51°33.037 3°4.024 10.6 359 13.3 100450 46
2010-06-10 12:36 51°33.149 3°3.731 10.4 2 13.3 100450 45
2010-06-10 12:37 51°33.262 3°3.435 10.7 357 13.3 100460 45
2010-06-10 12:38 51°33.385 3°3.151 10.8 357 13.3 100450 45
2010-06-10 12:39 51°33.514 3°2.87 9.7 360 13.2 100450 43
2010-06-10 12:40 51°33.642 3°2.586 10.1 357 13.2 100450 46
2010-06-10 12:41 51°33.771 3°2.305 10.4 358 13.2 100460 46
2010-06-10 12:42 51°33.9 3°2.026 9.5 360 13.2 100460 45
2010-06-10 12:43 51°34.031 3°1.749 10 360 13.2 100460 45
2010-06-10 12:44 51°34.152 3°1.464 9 360 13.1 100470 46
2010-06-10 12:45 51°34.245 3°1.153 7.3 1 13.1 100460 45
2010-06-10 12:46 51°34.334 3°0.835 7 1 13.1 100450 46
2010-06-10 12:47 51°34.423 3°0.516 7 4 13.1 100460 44
2010-06-10 12:48 51°34.507 3°0.278 7.7 3 13.1 100460 44
2010-06-10 12:49 51°34.6 3°0.22 8.6 342 13.1 100470 44
2010-06-10 12:50 51°34.656 3°0.267 8.7 317 13.1 100480 46
2010-06-10 12:51 51°34.672 3°0.317 7.5 243 13.1 100460 45
2010-06-10 12:52 51°34.679 3°0.327 6.7 259 13.1 100490 45
2010-06-10 12:53 51°34.683 3°0.335 6.3 262 13.1 100490 46
2010-06-10 12:54 51°34.686 3°0.341 5 262 13.1 100500 46
2010-06-10 12:55 51°34.689 3°0.347 6.5 261 13.1 100490 45
2010-06-10 12:56 51°34.692 3°0.353 8.3 259 13.1 100500 46
2010-06-10 12:57 51°34.695 3°0.36 6.9 258 13.1 100500 46
2010-06-10 12:58 51°34.678 3°0.393 5.7 35 13.1 100510 47
2010-06-10 12:59 51°34.64 3°0.369 5.2 44 13.3 100500 44
2010-06-10 13:00 51°34.62 3°0.266 5.8 30 13.2 100500 45
2010-06-10 13:01 51°34.624 3°0.168 5.6 26 13.1 100500 46
2010-06-10 13:02 51°34.629 3°0.072 5.7 31 13.1 100500 45
2010-06-10 13:03 51°34.635 2°59.972 5.2 28 13.1 100500 46
2010-06-10 13:04 51°34.628 2°59.878 5.3 40 13.1 100500 45
2010-06-10 13:05 51°34.588 2°59.82 2.9 32 13.2 100490 44
2010-06-10 13:06 51°34.538 2°59.751 4.1 37 13.2 100500 44
2010-06-10 13:07 51°34.492 2°59.679 5 31 13.2 100490 44
2010-06-10 13:08 51°34.443 2°59.612 4.9 37 13.1 100500 44
2010-06-10 13:09 51°34.392 2°59.551 3.6 34 13.1 100500 44
2010-06-10 13:10 51°34.342 2°59.492 2 35 13.2 100500 44
2010-06-10 13:11 51°34.287 2°59.439 2.2 35 13.4 100490 43
2010-06-10 13:12 51°34.233 2°59.391 1.8 31 13.6 100490 43
2010-06-10 13:13 51°34.178 2°59.342 1.5 34 13.7 100490 45
2010-06-10 13:14 51°34.123 2°59.292 3.2 38 13.7 100490 45
2010-06-10 13:15 51°34.068 2°59.242 2.1 40 13.8 100490 48
2010-06-10 13:16 51°34.014 2°59.19 2.5 32 13.8 100480 45
2010-06-10 13:17 51°33.959 2°59.139 1.9 35 13.9 100480 45
2010-06-10 13:18 51°33.904 2°59.086 1.4 39 13.9 100490 46
2010-06-10 13:19 51°33.849 2°59.033 1.2 35 13.9 100490 44
2010-06-10 13:20 51°33.796 2°58.98 2.4 40 14 100490 44
2010-06-10 13:21 51°33.742 2°58.926 1.8 38 13.9 100490 44
2010-06-10 13:22 51°33.688 2°58.87 2.7 38 13.9 100490 45
2010-06-10 13:23 51°33.633 2°58.813 3.6 39 14 100490 45
2010-06-10 13:24 51°33.579 2°58.757 1 34 13.9 100490 44
2010-06-10 13:25 51°33.525 2°58.703 2 40 14 100490 44
2010-06-10 13:26 51°33.477 2°58.635 3.1 35 13.9 100490 45
2010-06-10 13:27 51°33.432 2°58.557 3.5 38 13.6 100500 45
2010-06-10 13:28 51°33.387 2°58.479 3.6 32 13.5 100490 48
2010-06-10 13:29 51°33.34 2°58.403 4.6 33 13.4 100490 44
2010-06-10 13:30 51°33.299 2°58.316 4.9 43 13.4 100500 47
2010-06-10 13:31 51°33.266 2°58.221 4.1 38 13.4 100490 47
2010-06-10 13:32 51°33.232 2°58.13 5 44 13.3 100500 46
2010-06-10 13:33 51°33.197 2°58.039 4.5 45 13.3 100500 44
2010-06-10 13:34 51°33.168 2°57.941 4.7 30 13.3 100490 47
2010-06-10 13:35 51°33.167 2°57.828 5.9 25 13.3 100490 46
2010-06-10 13:36 51°33.195 2°57.718 5.4 13 13.3 100490 44
2010-06-10 13:37 51°33.24 2°57.622 4.9 6 13.3 100490 46
2010-06-10 13:38 51°33.306 2°57.559 7.3 352 13.2 100490 44
2010-06-10 13:39 51°33.38 2°57.526 7.2 346 13.2 100480 46
2010-06-10 13:40 51°33.455 2°57.523 7.1 335 13.3 100480 44
2010-06-10 13:41 51°33.522 2°57.566 7.4 324 13.2 100490 45
2010-06-10 13:42 51°33.552 2°57.661 6.9 244 13.2 100480 44
2010-06-10 13:43 51°33.547 2°57.725 6 248 13.2 100490 47
2010-06-10 13:44 51°33.542 2°57.767 6.5 249 13.3 100500 44
2010-06-10 13:45 51°33.542 2°57.795 6.6 249 13.2 100500 47
2010-06-10 13:46 51°33.544 2°57.815 6.5 251 13.2 100490 45
2010-06-10 13:47 51°33.547 2°57.832 5.5 251 13.2 100500 46
2010-06-10 13:48 51°33.536 2°57.883 3.8 263 13.2 100490 44
2010-06-10 13:49 51°33.441 2°57.921 3.1 258 13.2 100500 47
2010-06-10 13:50 51°33.264 2°57.976 2.6 249 13.2 100490 44
2010-06-10 13:51 51°33.066 2°58.032 3.3 253 13.2 100490 48
2010-06-10 13:52 51°32.865 2°58.085 3.3 252 13.3 100500 47
2010-06-10 13:53 51°32.656 2°58.138 3.3 251 13.3 100490 45
2010-06-10 13:54 51°32.458 2°58.192 3.7 259 13.3 100490 44
2010-06-10 13:55 51°32.252 2°58.219 4.2 251 13.3 100490 45
2010-06-10 13:56 51°32.067 2°58.141 0.8 13 13.3 100490 45
2010-06-10 13:57 51°31.893 2°57.953 2 21 13.3 100490 45
2010-06-10 13:58 51°31.725 2°57.75 1.8 15 13.4 100490 48
2010-06-10 13:59 51°31.557 2°57.564 0.2 18 13.4 100490 46
2010-06-10 14:00 51°31.39 2°57.363 1.6 11 13.4 100490 45
2010-06-10 14:01 51°31.224 2°57.17 0.1 24 13.4 100490 46
2010-06-10 14:02 51°31.055 2°56.973 0.4 5 13.4 100490 45
2010-06-10 14:03 51°30.89 2°56.779 1.2 17 13.4 100490 48
2010-06-10 14:04 51°30.722 2°56.58 1.3 18 13.4 100490 47
2010-06-10 14:05 51°30.555 2°56.374 1.2 34 13.4 100490 42
2010-06-10 14:06 51°30.389 2°56.174 0.1 28 13.4 100490 46
2010-06-10 14:07 51°30.218 2°55.976 1.5 12 13.4 100490 45
2010-06-10 14:08 51°30.047 2°55.769 2 29 13.4 100490 43
2010-06-10 14:09 51°29.875 2°55.567 0.4 23 13.4 100490 45
2010-06-10 14:10 51°29.703 2°55.37 0.4 13 13.4 100490 43
2010-06-10 14:11 51°29.528 2°55.164 1.3 10 13.4 100490 44
2010-06-10 14:12 51°29.356 2°54.965 1.7 22 13.4 100490 47
2010-06-10 14:13 51°29.184 2°54.763 2.1 23 13.4 100490 43
2010-06-10 14:14 51°29.012 2°54.565 1.2 25 13.4 100490 46
2010-06-10 14:15 51°28.84 2°54.37 0.9 11 13.4 100490 44
2010-06-10 14:16 51°28.665 2°54.164 1.2 27 13.5 100490 43
2010-06-10 14:17 51°28.496 2°53.965 1.1 23 13.5 100500 48
2010-06-10 14:18 51°28.32 2°53.758 0.7 16 13.5 100500 46
2010-06-10 14:19 51°28.154 2°53.543 2.5 9 13.5 100500 45
2010-06-10 14:20 51°28.014 2°53.266 2.9 13 13.5 100500 44
2010-06-10 14:21 51°27.88 2°52.996 2.8 7 13.5 100500 45
2010-06-10 14:22 51°27.743 2°52.721 3.3 12 13.5 100500 44
2010-06-10 14:23 51°27.614 2°52.455 2.8 10 13.5 100490 44
2010-06-10 14:24 51°27.476 2°52.182 3.1 10 13.5 100500 44
2010-06-10 14:25 51°27.337 2°51.907 3.6 16 13.5 100500 44
2010-06-10 14:26 51°27.199 2°51.649 3.9 12 13.5 100500 44
2010-06-10 14:27 51°27.057 2°51.384 2.3 8 13.5 100500 47
2010-06-10 14:28 51°26.927 2°51.119 1.9 13 13.5 100500 47
2010-06-10 14:29 51°26.783 2°50.839 3.2 6 13.4 100500 43
2010-06-10 14:30 51°26.643 2°50.578 3.9 12 13.4 100500 47
2010-06-10 14:31 51°26.496 2°50.297 3.1 10 13.4 100500 45
2010-06-10 14:32 51°26.358 2°50.034 2.1 5 13.4 100490 47
2010-06-10 14:33 51°26.208 2°49.777 0.9 11 13.4 100500 45
2010-06-10 14:34 51°26.022 2°49.593 0.2 19 13.4 100500 45
2010-06-10 14:35 51°25.827 2°49.433 0.7 20 13.4 100500 45
2010-06-10 14:36 51°25.632 2°49.271 0.1 7 13.4 100510 45
2010-06-10 14:37 51°25.462 2°49.036 2.9 9 13.4 100510 47
2010-06-10 14:38 51°25.346 2°48.756 3.9 12 13.4 100500 48
2010-06-10 14:39 51°25.247 2°48.504 4.2 25 13.4 100490 44
2010-06-10 14:40 51°25.182 2°48.336 3.8 36 13.4 100490 44
2010-06-10 14:41 51°25.115 2°48.3 4.5 270 13.4 100500 45
2010-06-10 14:42 51°25.061 2°48.35 4.1 265 13.4 100510 44
2010-06-10 14:43 51°25.015 2°48.425 6.9 256 13.4 100510 47
2010-06-10 14:44 51°24.998 2°48.464 5.7 251 13.4 100500 47
2010-06-10 14:45 51°24.988 2°48.463 6.3 258 13.4 100500 46
2010-06-10 14:46 51°24.978 2°48.465 7.3 256 13.4 100500 47
2010-06-10 14:47 51°24.967 2°48.468 7.4 257 13.4 100500 47
2010-06-10 14:48 51°24.957 2°48.47 7.1 254 13.4 100500 46
2010-06-10 14:49 51°24.948 2°48.468 7.1 255 13.4 100500 45
2010-06-10 14:50 51°24.939 2°48.467 7.5 253 13.4 100500 45
2010-06-10 14:51 51°24.93 2°48.468 5.8 258 13.4 100490 45
2010-06-10 14:52 51°24.926 2°48.547 8.3 233 13.4 100480 47
2010-06-10 14:53 51°24.97 2°48.743 9.4 319 13.4 100470 44
2010-06-10 14:54 51°25.047 2°48.765 7.7 354 13.4 100480 47
2010-06-10 14:55 51°25.062 2°48.652 6 17 13.4 100470 44
2010-06-10 14:56 51°25.063 2°48.537 5.8 15 13.4 100490 46
2010-06-10 14:57 51°25.067 2°48.445 7.2 13 13.4 100470 47
2010-06-10 14:58 51°25.073 2°48.357 6.6 8 13.4 100470 45
2010-06-10 14:59 51°25.08 2°48.269 6.3 11 13.4 100470 45
2010-06-10 15:00 51°25.086 2°48.185 5.8 11 13.4 100470 45
2010-06-10 15:01 51°25.094 2°48.093 7.7 10 13.4 100470 46
2010-06-10 15:02 51°25.1 2°47.995 5.9 15 13.4 100460 46
2010-06-10 15:03 51°25.098 2°47.892 6.4 21 13.4 100460 45
2010-06-10 15:04 51°25.078 2°47.786 5.6 29 13.4 100470 45
2010-06-10 15:05 51°25.043 2°47.69 5.3 36 13.4 100470 44
2010-06-10 15:06 51°24.993 2°47.609 5.3 43 13.4 100470 44
2010-06-10 15:07 51°24.94 2°47.53 5.7 41 13.3 100470 47
2010-06-10 15:08 51°24.891 2°47.446 5 38 13.3 100480 44
2010-06-10 15:09 51°24.847 2°47.355 6.1 33 13.3 100480 45
2010-06-10 15:10 51°24.801 2°47.269 5.1 39 13.4 100480 44
2010-06-10 15:11 51°24.75 2°47.19 4.5 41 13.4 100480 44
2010-06-10 15:12 51°24.7 2°47.11 5.6 37 13.4 100480 45
2010-06-10 15:13 51°24.65 2°47.029 5 41 13.4 100480 44
2010-06-10 15:14 51°24.602 2°46.944 5.3 36 13.3 100470 47
2010-06-10 15:15 51°24.556 2°46.854 6 39 13.3 100480 45
2010-06-10 15:16 51°24.511 2°46.764 4.7 34 13.3 100470 47
2010-06-10 15:17 51°24.466 2°46.673 5.8 36 13.3 100480 47
2010-06-10 15:18 51°24.421 2°46.583 4.2 35 13.4 100480 44
2010-06-10 15:19 51°24.375 2°46.493 5.2 39 13.3 100480 43
2010-06-10 15:20 51°24.33 2°46.402 4.5 37 13.3 100480 44
2010-06-10 15:21 51°24.287 2°46.315 5.3 40 13.3 100480 47
2010-06-10 15:22 51°24.244 2°46.228 5.7 37 13.4 100480 47
2010-06-10 15:23 51°24.201 2°46.14 5.6 35 13.3 100480 47
2010-06-10 15:24 51°24.158 2°46.051 3.9 37 13.3 100490 44
2010-06-10 15:25 51°24.116 2°45.963 5.4 40 13.3 100490 46
2010-06-10 15:26 51°24.073 2°45.875 5.4 41 13.3 100480 46
2010-06-10 15:27 51°24.03 2°45.786 5.3 37 13.3 100480 45
2010-06-10 15:28 51°23.988 2°45.697 5.9 36 13.3 100480 47
2010-06-10 15:29 51°23.959 2°45.597 6.7 25 13.3 100480 44
2010-06-10 15:30 51°23.951 2°45.492 6.3 19 13.3 100480 45
2010-06-10 15:31 51°23.951 2°45.389 5.9 15 13.3 100470 47
2010-06-10 15:32 51°23.96 2°45.292 6.7 10 13.3 100500 44
2010-06-10 15:33 51°23.978 2°45.207 5.8 360 13.3 100500 45
2010-06-10 15:34 51°24.004 2°45.142 8 350 13.4 100470 47
2010-06-10 15:35 51°24.036 2°45.099 7.4 338 13.4 100490 45
2010-06-10 15:36 51°24.056 2°45.082 6.4 330 13.3 100480 44
2010-06-10 15:37 51°24.059 2°45.066 6.5 324 13.4 100490 46
2010-06-10 15:38 51°24.052 2°45.047 6.5 320 13.4 100490 45
2010-06-10 15:39 51°24.043 2°45.037 8 243 13.4 100470 47
2010-06-10 15:40 51°24.016 2°45.086 6 253 13.4 100490 46
2010-06-10 15:41 51°23.958 2°45.267 7.8 26 13.4 100480 45
2010-06-10 15:42 51°23.879 2°45.561 7.6 20 13.4 100470 45
2010-06-10 15:43 51°23.79 2°45.866 7.5 28 13.4 100470 45
2010-06-10 15:44 51°23.7 2°46.169 8.5 22 13.4 100470 44
2010-06-10 15:45 51°23.61 2°46.477 8.1 23 13.4 100470 45
2010-06-10 15:46 51°23.509 2°46.776 7.6 26 13.4 100460 46
2010-06-10 15:47 51°23.355 2°47.014 6 21 13.4 100480 45
2010-06-10 15:48 51°23.173 2°47.213 5.2 243 13.4 100480 47
2010-06-10 15:49 51°22.985 2°47.405 5.1 251 13.5 100480 46
2010-06-10 15:50 51°22.8 2°47.603 5.3 247 13.5 100470 47
2010-06-10 15:51 51°22.618 2°47.808 6.7 249 13.5 100470 47
2010-06-10 15:52 51°22.435 2°48.008 5.1 246 13.5 100470 45
2010-06-10 15:53 51°22.254 2°48.21 5.5 243 13.5 100460 46
2010-06-10 15:54 51°22.072 2°48.41 7.3 244 13.6 100460 44
2010-06-10 15:55 51°21.897 2°48.612 6.9 249 13.6 100450 45
2010-06-10 15:56 51°21.718 2°48.812 6.8 244 13.7 100450 47
2010-06-10 15:57 51°21.541 2°49.016 6.7 251 13.7 100460 44
2010-06-10 15:58 51°21.361 2°49.211 6.1 250 13.7 100460 47
2010-06-10 15:59 51°21.17 2°49.395 5.7 248 13.7 100460 44
2010-06-10 16:00 51°20.979 2°49.572 4.5 244 13.7 100460 48
2010-06-10 16:01 51°20.788 2°49.749 4.2 244 13.7 100470 44
2010-06-10 16:02 51°20.599 2°49.926 4 239 13.8 100460 44
2010-06-10 16:03 51°20.414 2°50.104 3.5 317 13.8 100480 48
2010-06-10 16:04 51°20.218 2°50.257 3 322 13.8 100470 44
2010-06-10 16:05 51°20.023 2°50.402 2.1 31 13.8 100470 48
2010-06-10 16:06 51°19.83 2°50.549 2.5 328 13.9 100470 45
2010-06-10 16:08 51°19.533 2°50.735 2.4 309 13.9 100470 45
2010-06-10 16:09 51°19.2 2°50.97 2.6 285 13.9 100470 44
2010-06-10 16:10 51°18.998 2°51.113 2 308 13.9 100480 48
2010-06-10 16:11 51°18.795 2°51.256 3.4 284 14 100470 47
2010-06-10 16:12 51°18.594 2°51.401 3.9 307 14 100470 48
2010-06-10 16:13 51°18.393 2°51.547 2.5 279 14 100470 47
2010-06-10 16:14 51°18.193 2°51.693 2.1 306 14.1 100480 48
2010-06-10 16:15 51°17.989 2°51.821 2.1 277 14.1 100470 45
2010-06-10 16:16 51°17.782 2°51.952 2.4 302 14.2 100470 48
2010-06-10 16:17 51°17.572 2°52.087 3.7 284 14.2 100470 48
2010-06-10 16:18 51°17.359 2°52.22 3.2 303 14.3 100470 44
2010-06-10 16:19 51°17.148 2°52.351 3.9 279 14.3 100470 46
2010-06-10 16:20 51°16.94 2°52.487 3.7 301 14.4 100460 45
2010-06-10 16:21 51°16.736 2°52.639 3.8 310 14.5 100460 48
2010-06-10 16:22 51°16.529 2°52.797 4.7 303 14.5 100450 48
2010-06-10 16:23 51°16.326 2°52.958 5.6 303 14.5 100450 45
2010-06-10 16:24 51°16.129 2°53.121 6 301 14.5 100450 45
2010-06-10 16:25 51°15.937 2°53.296 5.8 279 14.5 100450 46
2010-06-10 16:26 51°15.749 2°53.483 7 304 14.6 100450 48
2010-06-10 16:27 51°15.564 2°53.68 5.9 285 14.5 100450 48
2010-06-10 16:28 51°15.388 2°53.883 6.4 304 14.6 100450 47
2010-06-10 16:29 51°15.218 2°54.098 7.5 278 14.6 100450 45
2010-06-10 16:30 51°15.066 2°54.337 6.6 302 14.6 100440 48
2010-06-10 16:31 51°14.89 2°54.545 6.7 280 14.6 100450 48
2010-06-10 16:32 51°14.708 2°54.734 5.9 306 14.7 100450 48
2010-06-10 16:33 51°14.539 2°54.941 7 280 14.7 100450 46
2010-06-10 16:34 51°14.372 2°55.149 6.2 278 14.7 100440 45
2010-06-10 16:35 51°14.226 2°55.326 6.6 306 14.7 100450 45
2010-06-10 16:36 51°14.085 2°55.445 3.5 277 14.8 100470 48
2010-06-10 16:37 51°13.94 2°55.55 2.9 279 14.8 100460 48
2010-06-10 16:38 51°13.818 2°55.642 3 306 14.8 100460 45
2010-06-10 16:39 51°13.734 2°55.76 1.2 281 14.8 100450 46
2010-06-10 16:40 51°13.685 2°55.868 2 307 14.9 100450 49
2010-06-10 16:41 51°13.668 2°55.947 2.9 284 14.9 100460 48